TimeEST,TemperatureF,Dew PointF,Humidity,Sea Level PressureIn,VisibilityMPH,Wind Direction,Wind SpeedMPH,Gust SpeedMPH,PrecipitationIn,Events,Conditions,WindDirDegrees,DateUTC
12:53 AM,57.0,39.9,53,30.00,10.0,SW,9.2,-,N/A,,Scattered Clouds,230,2012-11-23 05:53:00
1:53 AM,57.9,39.9,51,29.98,10.0,SW,11.5,-,0.00,,Overcast,220,2012-11-23 06:53:00
2:53 AM,59.0,39.9,49,29.97,10.0,SW,8.1,17.3,N/A,,Overcast,230,2012-11-23 07:53:00
3:53 AM,57.9,39.9,51,29.96,10.0,SW,10.4,-,N/A,,Overcast,230,2012-11-23 08:53:00
4:09 AM,57.2,41.0,55,29.96,10.0,WSW,8.1,17.3,N/A,,Overcast,240,2012-11-23 09:09:00
4:53 AM,57.9,42.1,56,29.95,10.0,WSW,8.1,-,N/A,,Overcast,240,2012-11-23 09:53:00
5:53 AM,53.1,46.9,80,29.95,10.0,WSW,6.9,-,0.00,,Overcast,250,2012-11-23 10:53:00
6:27 AM,51.8,50.0,94,29.96,5.0,West,8.1,16.1,0.01,Rain,Light Rain,270,2012-11-23 11:27:00
6:41 AM,53.6,50.0,88,29.96,10.0,West,8.1,-,0.01,,Overcast,280,2012-11-23 11:41:00
6:53 AM,53.1,48.9,86,29.97,10.0,West,11.5,-,0.01,,Overcast,280,2012-11-23 11:53:00
7:03 AM,51.8,44.6,76,29.98,10.0,WNW,13.8,27.6,N/A,,Overcast,290,2012-11-23 12:03:00
7:53 AM,46.9,37.9,71,30.01,10.0,WNW,8.1,-,N/A,,Overcast,290,2012-11-23 12:53:00
8:53 AM,45.0,36.0,71,30.03,10.0,West,8.1,19.6,N/A,,Overcast,280,2012-11-23 13:53:00
9:53 AM,46.0,32.0,58,30.04,10.0,West,13.8,21.9,N/A,,Clear,280,2012-11-23 14:53:00
10:53 AM,46.9,30.0,52,30.06,10.0,West,18.4,27.6,N/A,,Partly Cloudy,280,2012-11-23 15:53:00
11:53 AM,45.0,28.0,52,30.05,10.0,West,17.3,27.6,N/A,,Mostly Cloudy,280,2012-11-23 16:53:00
12:53 PM,45.0,27.0,49,30.04,10.0,West,19.6,29.9,N/A,,Mostly Cloudy,280,2012-11-23 17:53:00
1:53 PM,46.9,26.1,44,30.04,10.0,West,11.5,31.1,N/A,,Scattered Clouds,280,2012-11-23 18:53:00
2:53 PM,43.0,25.0,49,30.05,10.0,West,16.1,27.6,N/A,,Mostly Cloudy,270,2012-11-23 19:53:00
3:53 PM,42.1,25.0,51,30.09,10.0,WNW,19.6,25.3,N/A,,Overcast,290,2012-11-23 20:53:00
4:53 PM,39.9,24.1,53,30.12,10.0,WNW,16.1,27.6,N/A,,Overcast,290,2012-11-23 21:53:00
5:53 PM,37.9,25.0,60,30.15,10.0,NW,15.0,24.2,N/A,,Overcast,310,2012-11-23 22:53:00
6:53 PM,35.1,23.0,61,30.19,10.0,NW,15.0,25.3,N/A,,Overcast,310,2012-11-23 23:53:00
7:53 PM,34.0,21.9,61,30.21,10.0,NW,15.0,23.0,N/A,,Overcast,320,2012-11-24 00:53:00
8:53 PM,33.1,21.0,61,30.22,10.0,NW,9.2,-,N/A,,Overcast,320,2012-11-24 01:53:00
9:53 PM,33.1,21.0,61,30.22,10.0,NNW,12.7,-,N/A,,Overcast,330,2012-11-24 02:53:00
10:53 PM,32.0,19.9,61,30.22,10.0,NNW,11.5,-,N/A,,Overcast,330,2012-11-24 03:53:00
11:53 PM,32.0,19.0,59,30.22,10.0,WNW,12.7,-,N/A,,Overcast,290,2012-11-24 04:53:00